Regional Weather Roundup
Issued by NWS Goodland, KS

Home | Current Version | Previous Version | Graphics & Text | Print | Product List | Glossary On
Versions: 1 2 3 4 5 6 7 8 9 10 11 12 13 14 15 16 17 18 19 20 21 22 23 24 25 26 27 28 29 30 31 32 33 34 35 36 37 38 39 40 41 42 43 44 45 46 47 48 49 50
000
ASUS43 KGLD 232008
RWRGLD

GOODLAND FORECAST AREA HOURLY WEATHER ROUNDUP
NATIONAL WEATHER SERVICE GOODLAND KS
200 PM MDT THU OCT 23 2014

...OFFICIAL OBSERVATIONS...

CITY           SKY/WX    TMP DP  RH WIND       PRES   REMARKS
GOODLAND KS    SUNNY     74  47  38 S13       30.07F
HILL CITY KS   PTSUNNY   71  56  58 S5        30.05F
IMPERIAL NEB   MOSUNNY   75  40  28 SW10      30.03F
MCCOOK NEB     MOSUNNY   74  46  36 S12       30.04F
AKRON CO       SUNNY     72  29  20 SW9       30.10F
BURLINGTON CO  SUNNY     74  41  30 SW9       30.09F
LIMON CO       SUNNY     71  28  20 VRB7      30.14F
$$

...UNOFFICIAL OBSERVATIONS...

CITY           SKY/WX    TMP DP  RH WIND       PRES   REMARKS
COLBY KS       SUNNY     72  57  60 S10       30.08F
GOVE KS          N/A     70  32  24 MISG        N/A
NORTON KS      SUNNY     70  52  52 S10       30.04F
SHARON SPRINGS   N/A     70  59  67 S8          N/A
TRENTON NEB      N/A     78  32  18 S13         N/A
KIT CARSON CO    N/A     72  46  38 N5          N/A
YUMA CO          N/A     74  37  26 W9          N/A
$$



USA.gov is the U.S. government's official web portal to all federal, state and local government web resources and services.